DW5444 Weather Reports


time (UTC)temp
F
wind
direction
speed
knots
gust
knots
rain 1hr
in
rain 24hr
in
rain mn
in
humidity
%
barometer
mb
20260906204524 59 338 3.5 8.7 0.00 0.18 0.18 59 1014.1
20260906203022 59 79 2.6 9.6 0.00 0.18 0.18 62 1014.2
20260906201548 58 20 0.9 8.7 0.00 0.18 0.18 63 1014.2
20260906200020 58 77 0.0 7.0 0.00 0.18 0.18 62 1014.2
20260906194519 58 21 0.9 3.5 0.00 0.18 0.18 60 1014.3
20260906193018 58 333 0.0 4.3 0.00 0.18 0.18 64 1014.5
20260906191516 58 123 0.9 4.3 0.00 0.18 0.18 65 1014.4
20260906190019 58 52 0.0 4.3 0.00 0.18 0.18 67 1014.4
20260906184512 56 51 0.9 4.3 0.00 0.18 0.18 70 1014.7
20260906183010 56 168 0.0 1.7 0.00 0.18 0.18 72 1014.6
20260906181518 55 301 0.9 2.6 0.00 0.18 0.18 73 1014.6
20260906180006 55 72 0.0 2.6 0.00 0.18 0.18 73 1014.7
20260906174504 54 43 0.0 4.3 0.00 0.18 0.18 74 1014.8
20260906173005 54 15 0.0 5.2 0.00 0.18 0.18 75 1014.6
20260906171503 54 45 2.6 6.1 0.00 0.18 0.18 77 1014.6
20260906170001 54 87 0.9 3.5 0.00 0.18 0.18 76 1014.5
20260906164600 53 72 0.9 2.6 0.00 0.18 0.18 80 1014.7
20260906163100 52 76 0.9 6.1 0.00 0.18 0.18 79 1014.7
20260906161604 53 322 0.0 3.5 0.00 0.18 0.18 80 1014.7
20260906160057 52 53 0.0 2.6 0.00 0.18 0.18 82 1014.5
20260906154556 50 48 0.0 0.9 0.00 0.18 0.18 85 1014.7
20260906153110 49 69 0.0 1.7 0.03 0.18 0.18 88 1014.6
20260906151555 49 80 0.0 0.0 0.07 0.18 0.18 88 1014.6
20260906150057 48 76 0.0 0.0 0.10 0.18 0.18 89 1014.5
20260906144600 48 78 0.0 5.2 0.13 0.18 0.18 90 1014.7
20260906143056 48 74 0.0 5.2 0.13 0.15 0.15 90 1014.8
20260906141553 48 95 2.6 6.1 0.09 0.10 0.10 90 1015.5
20260906140051 48 169 0.9 1.7 0.08 0.08 0.08 89 1015.1
20260906134548 48 211 0.0 2.6 0.05 0.05 0.05 88 1014.8
20260906133050 48 195 0.0 0.9 0.02 0.02 0.02 87 1014.5
20260906131538 49 215 0.0 1.7 0.01 0.01 0.01 83 1014.3
20260906130040 49 246 0.0 0.9 0.00 0.00 0.00 80 1014.0
20260906124535 49 95 0.0 0.9 0.00 0.00 0.00 79 1014.1
20260906123039 50 78 0.0 3.5 0.00 0.00 0.00 77 1014.0
20260906121541 50 45 0.0 3.5 0.00 0.00 0.00 79 1013.9
20260906120029 50 289 0.0 1.7 0.00 0.00 0.00 81 1013.7
20260906114531 50 282 0.0 0.0 0.00 0.00 0.00 80 1013.7
20260906113025 51 277 0.0 0.0 0.00 0.00 0.00 79 1013.8
20260906111524 51 284 0.0 0.0 0.00 0.00 0.00 79 1013.9
20260906110024 52 238 0.0 1.7 0.00 0.00 0.00 77 1013.8
20260906104521 52 241 0.0 0.0 0.00 0.00 0.00 76 1013.7
20260906103021 52 341 0.0 0.0 0.00 0.00 0.00 75 1014.0
20260906101521 52 90 0.0 0.0 0.00 0.00 0.00 76 1013.8
20260906100023 51 111 0.0 0.9 0.00 0.00 0.00 76 1013.7
20260906094519 51 94 0.0 0.0 0.00 0.00 0.00 76 1013.6
20260906093033 52 100 0.0 0.9 0.00 0.00 0.00 77 1013.6
20260906091521 52 86 0.0 0.0 0.00 0.00 0.00 77 1013.8
20260906090016 52 135 0.0 0.0 0.00 0.00 0.00 77 1014.0
20260906084511 53 107 0.0 0.0 0.00 0.00 0.00 74 1014.1
20260906083010 54 125 0.0 1.7 0.00 0.00 0.00 73 1014.3
20260906081512 55 331 0.0 4.3 0.00 0.00 0.00 70 1014.4
20260906080008 54 85 0.0 2.6 0.00 0.00 0.00 71 1014.4
20260906074506 53 86 0.0 0.9 0.00 0.00 0.00 74 1014.4
20260906073003 53 94 0.9 2.6 0.00 0.00 0.00 73 1014.7
20260906071501 54 217 0.0 0.9 0.00 0.00 0.00 72 1014.7
20260906070122 54 61 0.0 0.9 0.00 0.00 0.00 72 1014.7
20260906064556 54 90 1.7 2.6 0.00 0.00 0.00 73 1014.8
20260906063055 53 104 0.0 0.0 0.00 0.00 0.00 75 1015.1
20260906061618 54 90 0.0 0.0 0.00 0.00 0.00 73 1015.2
20260906060054 54 80 0.0 1.7 0.00 0.00 0.00 71 1015.3
20260906054656 54 92 0.0 2.6 0.00 0.00 0.00 72 1015.3
20260906053056 53 93 0.0 1.7 0.00 0.00 0.00 73 1015.3
20260906051553 53 117 0.0 4.3 0.00 0.00 0.00 71 1015.3
20260906050108 53 85 0.0 0.9 0.00 0.00 0.00 72 1015.4
20260906044552 55 102 0.9 2.6 0.00 0.00 0.00 68 1015.6
20260906043105 54 90 0.0 1.7 0.00 0.00 0.00 69 1015.6
20260906041551 53 109 0.0 0.9 0.00 0.00 0.00 70 1015.4
20260906040110 54 102 0.0 0.9 0.00 0.00 0.00 67 1015.3
20260906034550 55 79 0.0 2.6 0.00 0.00 0.00 65 1015.4
20260906033149 56 97 1.7 2.6 0.00 0.00 0.00 63 1015.5
20260906031549 56 107 0.0 0.0 0.00 0.00 0.00 63 1015.2
20260906030048 56 131 0.0 2.6 0.00 0.00 0.00 63 1015.2
20260906024547 57 87 0.0 0.9 0.00 0.00 0.00 62 1015.1
20260906023102 58 122 0.0 1.7 0.00 0.00 0.00 61 1015.2
20260906021547 59 325 0.0 0.0 0.00 0.00 0.00 59 1015.1
20260906020046 60 29 0.0 4.3 0.00 0.00 0.00 58 1015.0
20260906014556 60 66 0.0 4.3 0.00 0.00 0.00 55 1015.2
20260906013045 61 53 0.9 5.2 0.00 0.00 0.00 54 1015.1
20260906011553 61 329 0.9 7.0 0.00 0.00 0.00 55 1015.1
20260906010044 62 348 2.6 7.0 0.00 0.00 0.00 55 1015.0
20260906004543 63 331 2.6 7.8 0.00 0.00 0.00 53 1015.0
20260906003044 64 66 4.3 9.6 0.00 0.00 0.00 52 1015.0
20260906001542 64 95 3.5 8.7 0.00 0.00 0.00 52 1015.1
20260906000043 64 346 6.1 9.6 0.00 0.00 0.00 52 1015.1
20260905234551 64 343 5.2 11.3 0.00 0.00 0.00 53 1015.1
20260905233040 64 67 5.2 10.4 0.00 0.00 0.00 53 1015.1
20260905231540 63 314 3.5 9.6 0.00 0.00 0.00 53 1015.2
20260905230042 63 320 5.2 11.3 0.00 0.00 0.00 52 1015.2
20260905224539 63 331 2.6 8.7 0.00 0.00 0.00 53 1015.3
20260905223038 63 19 3.5 9.6 0.00 0.00 0.00 53 1015.4
20260905221536 63 14 3.5 9.6 0.00 0.00 0.00 53 1015.5
20260905220034 63 328 3.5 12.2 0.00 0.00 0.00 54 1015.5
20260905214531 62 355 3.5 10.4 0.00 0.00 0.00 55 1015.6
20260905213031 62 19 1.7 9.6 0.00 0.00 0.00 55 1015.7
20260905211529 61 61 3.5 11.3 0.00 0.00 0.00 56 1015.6
20260905210030 61 339 2.6 11.3 0.00 0.00 0.00 57 1015.6